Station History

Weather Underground - logo

Station Historical Data
Daily Summary for January 7, 2018 Units:  Both    English   Metric
« Previous Day
Next Day »
Daily Weekly Monthly Yearly Custom
  High: Low: Average:
Temperature: TemperatureF °F /  -17.8 °C 53.7 °F /  12.1 °C 58.8 °F /  14.9 °C
Dew Point: DewpointF °F /  -17.8 °C 51.1 °F /  10.6 °C 54.1 °F /  12.3 °C
Humidity: Humidity % 60 % 85 %
Wind Speed: WindSpeedMPH mph /  0 km/h - 0.7 mph /  1.1 km/h
Wind Gust: WindSpeedGustMPH mph /  0 km/h - -
Wind:- - West
Pressure: PressureIn in /  0 hPa 30.01 in /  1016.1 hPa -
Precipitation: 0.01 in /  0.25 mm    
Historical Graphs
 
 
Tabular Data for January 7, 2018
Time Temperature Dew Point Pressure Wind Wind Speed Wind Gust Humidity Rainfall Rate (Hourly)
TemperatureF °F /  -17.8 °C DewpointF °F /  -17.8 °C PressureIn in /  0 hPa Calm     Humidity % HourlyPrecipIn in /  0 mm
00:03 54.7 °F /  12.6 °C 53.6 °F /  12 °C 30.17 in /  1021.6 hPa Calm     96 % 0.01 in /  0.25 mm
00:08 54.7 °F /  12.6 °C 53.6 °F /  12 °C 30.17 in /  1021.6 hPa Calm     96 % 0.01 in /  0.25 mm
00:10 54.7 °F /  12.6 °C 53.6 °F /  12 °C 30.17 in /  1021.6 hPa Calm     96 % 0.01 in /  0.25 mm
00:15 54.6 °F /  12.6 °C 53.5 °F /  11.9 °C 30.16 in /  1021.2 hPa Calm     96 % 0.01 in /  0.25 mm
00:20 54.6 °F /  12.6 °C 53.5 °F /  11.9 °C 30.16 in /  1021.2 hPa Calm     96 % 0.01 in /  0.25 mm
00:24 54.6 °F /  12.6 °C 53.5 °F /  11.9 °C 30.16 in /  1021.2 hPa Calm     96 % 0.01 in /  0.25 mm
00:29 54.5 °F /  12.5 °C 53.4 °F /  11.9 °C 30.16 in /  1021.2 hPa Calm     96 % 0.01 in /  0.25 mm
00:34 54.5 °F /  12.5 °C 53.4 °F /  11.9 °C 30.16 in /  1021.2 hPa Calm     96 % 0.01 in /  0.25 mm
00:39 54.5 °F /  12.5 °C 53.4 °F /  11.9 °C 30.16 in /  1021.2 hPa Calm     96 % 0.01 in /  0.25 mm
00:43 54.5 °F /  12.5 °C 53.4 °F /  11.9 °C 30.16 in /  1021.2 hPa Calm     96 % 0.01 in /  0.25 mm
00:48 54.5 °F /  12.5 °C 53.4 °F /  11.9 °C 30.16 in /  1021.2 hPa Calm     96 % 0.01 in /  0.25 mm
00:49 54.5 °F /  12.5 °C 53.4 °F /  11.9 °C 30.16 in /  1021.2 hPa Calm     96 % 0.01 in /  0.25 mm
00:54 54.4 °F /  12.4 °C 53.3 °F /  11.8 °C 30.15 in /  1020.9 hPa Calm     96 % 0.01 in /  0.25 mm
01:00 54.4 °F /  12.4 °C 53.3 °F /  11.8 °C 30.15 in /  1020.9 hPa Calm     96 % 0.01 in /  0.25 mm
01:05 54.4 °F /  12.4 °C 53.6 °F /  12 °C 30.15 in /  1020.9 hPa Calm     97 % 0.00 in /  0 mm
01:11 54.4 °F /  12.4 °C 53.6 °F /  12 °C 30.15 in /  1020.9 hPa Calm     97 % 0.00 in /  0 mm
01:16 54.4 °F /  12.4 °C 53.6 °F /  12 °C 30.15 in /  1020.9 hPa Calm     97 % 0.00 in /  0 mm
01:21 54.4 °F /  12.4 °C 53.6 °F /  12 °C 30.15 in /  1020.9 hPa Calm     97 % 0.00 in /  0 mm
01:26 54.4 °F /  12.4 °C 53.6 °F /  12 °C 30.15 in /  1020.9 hPa Calm     97 % 0.00 in /  0 mm
01:27 54.4 °F /  12.4 °C 53.6 °F /  12 °C 30.15 in /  1020.9 hPa Calm     97 % 0.00 in /  0 mm
01:32 54.4 °F /  12.4 °C 53.6 °F /  12 °C 30.15 in /  1020.9 hPa Calm     97 % 0.00 in /  0 mm
01:36 54.4 °F /  12.4 °C 53.6 °F /  12 °C 30.15 in /  1020.9 hPa Calm     97 % 0.00 in /  0 mm
01:41 54.4 °F /  12.4 °C 53.6 °F /  12 °C 30.15 in /  1020.9 hPa Calm     97 % 0.00 in /  0 mm
01:42 54.4 °F /  12.4 °C 53.6 °F /  12 °C 30.15 in /  1020.9 hPa Calm     97 % 0.00 in /  0 mm
01:48 54.4 °F /  12.4 °C 53.6 °F /  12 °C 30.16 in /  1021.2 hPa Calm     97 % 0.00 in /  0 mm
01:53 54.4 °F /  12.4 °C 53.6 °F /  12 °C 30.16 in /  1021.2 hPa Calm     97 % 0.00 in /  0 mm
01:58 54.4 °F /  12.4 °C 53.6 °F /  12 °C 30.16 in /  1021.2 hPa Calm     97 % 0.00 in /  0 mm
02:05 54.5 °F /  12.5 °C 53.7 °F /  12.1 °C 30.16 in /  1021.2 hPa Calm     97 % 0.00 in /  0 mm
02:06 54.4 °F /  12.4 °C 53.6 °F /  12 °C 30.16 in /  1021.2 hPa SSE 5.8 mph /  9.3 km/h 5.8 mph /  9.3 km/h 97 % 0.00 in /  0 mm
02:11 54.5 °F /  12.5 °C 53.7 °F /  12.1 °C 30.16 in /  1021.2 hPa Calm     97 % 0.00 in /  0 mm
02:12 54.5 °F /  12.5 °C 53.7 °F /  12.1 °C 30.16 in /  1021.2 hPa Calm     97 % 0.00 in /  0 mm
02:17 54.5 °F /  12.5 °C 53.7 °F /  12.1 °C 30.16 in /  1021.2 hPa Calm     97 % 0.00 in /  0 mm
02:22 54.6 °F /  12.6 °C 53.8 °F /  12.1 °C 30.16 in /  1021.2 hPa Calm     97 % 0.00 in /  0 mm
02:25 54.6 °F /  12.6 °C 53.8 °F /  12.1 °C 30.16 in /  1021.2 hPa Calm     97 % 0.00 in /  0 mm
02:30 54.7 °F /  12.6 °C 53.9 °F /  12.2 °C 30.16 in /  1021.2 hPa Calm     97 % 0.00 in /  0 mm
02:31 54.7 °F /  12.6 °C 53.9 °F /  12.2 °C 30.16 in /  1021.2 hPa Calm     97 % 0.00 in /  0 mm
02:36 54.7 °F /  12.6 °C 53.9 °F /  12.2 °C 30.17 in /  1021.6 hPa Calm     97 % 0.00 in /  0 mm
02:37 54.7 °F /  12.6 °C 53.9 °F /  12.2 °C 30.16 in /  1021.2 hPa Calm     97 % 0.00 in /  0 mm
02:43 54.7 °F /  12.6 °C 53.9 °F /  12.2 °C 30.17 in /  1021.6 hPa Calm     97 % 0.00 in /  0 mm
02:48 54.7 °F /  12.6 °C 53.9 °F /  12.2 °C 30.17 in /  1021.6 hPa Calm     97 % 0.00 in /  0 mm
02:53 54.6 °F /  12.6 °C 53.8 °F /  12.1 °C 30.17 in /  1021.6 hPa Calm     97 % 0.00 in /  0 mm
02:58 54.6 °F /  12.6 °C 53.8 °F /  12.1 °C 30.17 in /  1021.6 hPa Calm     97 % 0.00 in /  0 mm
03:07 54.5 °F /  12.5 °C 53.7 °F /  12.1 °C 30.18 in /  1021.9 hPa Calm     97 % 0.00 in /  0 mm
03:12 54.4 °F /  12.4 °C 53.6 °F /  12 °C 30.18 in /  1021.9 hPa Calm     97 % 0.00 in /  0 mm
03:15 54.4 °F /  12.4 °C 53.6 °F /  12 °C 30.17 in /  1021.6 hPa Calm     97 % 0.00 in /  0 mm
03:20 54.3 °F /  12.4 °C 53.5 °F /  11.9 °C 30.17 in /  1021.6 hPa Calm     97 % 0.00 in /  0 mm
03:23 54.3 °F /  12.4 °C 53.5 °F /  11.9 °C 30.17 in /  1021.6 hPa Calm     97 % 0.00 in /  0 mm
03:25 54.3 °F /  12.4 °C 53.5 °F /  11.9 °C 30.18 in /  1021.9 hPa Calm     97 % 0.00 in /  0 mm
03:30 54.4 °F /  12.4 °C 53.6 °F /  12 °C 30.18 in /  1021.9 hPa Calm     97 % 0.00 in /  0 mm
03:33 54.4 °F /  12.4 °C 53.6 °F /  12 °C 30.18 in /  1021.9 hPa Calm     97 % 0.00 in /  0 mm
03:35 54.4 °F /  12.4 °C 53.6 °F /  12 °C 30.18 in /  1021.9 hPa Calm     97 % 0.00 in /  0 mm
03:40 54.4 °F /  12.4 °C 53.6 °F /  12 °C 30.18 in /  1021.9 hPa Calm     97 % 0.00 in /  0 mm
03:41 54.4 °F /  12.4 °C 53.6 °F /  12 °C 30.18 in /  1021.9 hPa Calm     97 % 0.00 in /  0 mm
03:46 54.4 °F /  12.4 °C 53.6 °F /  12 °C 30.18 in /  1021.9 hPa Calm     97 % 0.00 in /  0 mm
03:48 54.4 °F /  12.4 °C 53.6 °F /  12 °C 30.18 in /  1021.9 hPa Calm     97 % 0.00 in /  0 mm
03:55 54.4 °F /  12.4 °C 53.6 °F /  12 °C 30.17 in /  1021.6 hPa Calm     97 % 0.00 in /  0 mm
04:00 54.5 °F /  12.5 °C 53.7 °F /  12.1 °C 30.17 in /  1021.6 hPa Calm     97 % 0.00 in /  0 mm
04:05 54.5 °F /  12.5 °C 53.7 °F /  12.1 °C 30.17 in /  1021.6 hPa Calm     97 % 0.00 in /  0 mm
04:10 54.6 °F /  12.6 °C 53.8 °F /  12.1 °C 30.17 in /  1021.6 hPa Calm     97 % 0.00 in /  0 mm
04:12 54.6 °F /  12.6 °C 53.8 °F /  12.1 °C 30.16 in /  1021.2 hPa Calm     97 % 0.00 in /  0 mm
04:18 54.6 °F /  12.6 °C 53.8 °F /  12.1 °C 30.16 in /  1021.2 hPa Calm     97 % 0.00 in /  0 mm
04:23 54.6 °F /  12.6 °C 53.8 °F /  12.1 °C 30.16 in /  1021.2 hPa Calm     97 % 0.00 in /  0 mm
04:28 54.7 °F /  12.6 °C 53.9 °F /  12.2 °C 30.16 in /  1021.2 hPa Calm     97 % 0.00 in /  0 mm
04:32 54.7 °F /  12.6 °C 53.9 °F /  12.2 °C 30.16 in /  1021.2 hPa Calm     97 % 0.00 in /  0 mm
04:37 54.7 °F /  12.6 °C 53.9 °F /  12.2 °C 30.16 in /  1021.2 hPa Calm     97 % 0.00 in /  0 mm
04:39 54.7 °F /  12.6 °C 53.9 °F /  12.2 °C 30.16 in /  1021.2 hPa Calm     97 % 0.00 in /  0 mm
04:44 54.7 °F /  12.6 °C 53.9 °F /  12.2 °C 30.16 in /  1021.2 hPa Calm     97 % 0.00 in /  0 mm
04:49 54.8 °F /  12.7 °C 54.0 °F /  12.2 °C 30.16 in /  1021.2 hPa Calm     97 % 0.00 in /  0 mm
04:55 54.9 °F /  12.7 °C 54.1 °F /  12.3 °C 30.15 in /  1020.9 hPa Calm     97 % 0.00 in /  0 mm
04:57 54.9 °F /  12.7 °C 54.1 °F /  12.3 °C 30.15 in /  1020.9 hPa Calm     97 % 0.00 in /  0 mm
05:02 54.9 °F /  12.7 °C 54.1 °F /  12.3 °C 30.15 in /  1020.9 hPa Calm     97 % 0.00 in /  0 mm
05:05 54.9 °F /  12.7 °C 54.1 °F /  12.3 °C 30.15 in /  1020.9 hPa Calm     97 % 0.00 in /  0 mm
05:11 55.0 °F /  12.8 °C 54.2 °F /  12.3 °C 30.15 in /  1020.9 hPa Calm     97 % 0.00 in /  0 mm
05:15 55.0 °F /  12.8 °C 54.2 °F /  12.3 °C 30.15 in /  1020.9 hPa Calm     97 % 0.00 in /  0 mm
05:20 55.1 °F /  12.8 °C 54.3 °F /  12.4 °C 30.15 in /  1020.9 hPa Calm     97 % 0.00 in /  0 mm
05:25 55.1 °F /  12.8 °C 54.3 °F /  12.4 °C 30.15 in /  1020.9 hPa Calm     97 % 0.00 in /  0 mm
05:30 55.2 °F /  12.9 °C 54.4 °F /  12.4 °C 30.15 in /  1020.9 hPa Calm     97 % 0.00 in /  0 mm
05:35 55.1 °F /  12.8 °C 54.3 °F /  12.4 °C 30.15 in /  1020.9 hPa Calm     97 % 0.00 in /  0 mm
05:40 55.1 °F /  12.8 °C 54.3 °F /  12.4 °C 30.15 in /  1020.9 hPa Calm     97 % 0.00 in /  0 mm
05:45 55.1 °F /  12.8 °C 54.3 °F /  12.4 °C 30.15 in /  1020.9 hPa Calm     97 % 0.00 in /  0 mm
05:50 55.1 °F /  12.8 °C 54.3 °F /  12.4 °C 30.16 in /  1021.2 hPa Calm     97 % 0.00 in /  0 mm
05:55 55.1 °F /  12.8 °C 54.3 °F /  12.4 °C 30.16 in /  1021.2 hPa Calm     97 % 0.00 in /  0 mm
06:01 55.0 °F /  12.8 °C 54.2 °F /  12.3 °C 30.16 in /  1021.2 hPa Calm     97 % 0.00 in /  0 mm
06:06 55.0 °F /  12.8 °C 54.2 °F /  12.3 °C 30.16 in /  1021.2 hPa Calm     97 % 0.00 in /  0 mm
06:11 55.1 °F /  12.8 °C 54.3 °F /  12.4 °C 30.16 in /  1021.2 hPa Calm     97 % 0.00 in /  0 mm
06:16 55.1 °F /  12.8 °C 54.3 °F /  12.4 °C 30.16 in /  1021.2 hPa Calm     97 % 0.00 in /  0 mm
06:17 55.1 °F /  12.8 °C 54.3 °F /  12.4 °C 30.15 in /  1020.9 hPa Calm     97 % 0.00 in /  0 mm
06:22 55.1 °F /  12.8 °C 54.3 °F /  12.4 °C 30.16 in /  1021.2 hPa Calm     97 % 0.00 in /  0 mm
06:24 55.1 °F /  12.8 °C 54.3 °F /  12.4 °C 30.16 in /  1021.2 hPa Calm     97 % 0.00 in /  0 mm
06:30 55.2 °F /  12.9 °C 54.4 °F /  12.4 °C 30.16 in /  1021.2 hPa Calm     97 % 0.00 in /  0 mm
06:33 55.2 °F /  12.9 °C 54.4 °F /  12.4 °C 30.16 in /  1021.2 hPa Calm     97 % 0.00 in /  0 mm
06:38 55.2 °F /  12.9 °C 54.4 °F /  12.4 °C 30.16 in /  1021.2 hPa Calm     97 % 0.00 in /  0 mm
06:43 55.1 °F /  12.8 °C 54.3 °F /  12.4 °C 30.16 in /  1021.2 hPa Calm     97 % 0.00 in /  0 mm
06:48 55.1 °F /  12.8 °C 54.3 °F /  12.4 °C 30.16 in /  1021.2 hPa Calm     97 % 0.00 in /  0 mm
06:53 55.1 °F /  12.8 °C 54.3 °F /  12.4 °C 30.16 in /  1021.2 hPa Calm     97 % 0.00 in /  0 mm
06:58 55.1 °F /  12.8 °C 54.3 °F /  12.4 °C 30.16 in /  1021.2 hPa Calm     97 % 0.00 in /  0 mm
07:06 55.0 °F /  12.8 °C 54.2 °F /  12.3 °C 30.16 in /  1021.2 hPa Calm     97 % 0.00 in /  0 mm
07:11 55.0 °F /  12.8 °C 54.2 °F /  12.3 °C 30.16 in /  1021.2 hPa Calm     97 % 0.00 in /  0 mm
07:16 54.9 °F /  12.7 °C 54.1 °F /  12.3 °C 30.16 in /  1021.2 hPa Calm     97 % 0.00 in /  0 mm
07:18 54.9 °F /  12.7 °C 54.1 °F /  12.3 °C 30.16 in /  1021.2 hPa Calm     97 % 0.00 in /  0 mm
07:23 54.9 °F /  12.7 °C 54.1 °F /  12.3 °C 30.16 in /  1021.2 hPa SE 1.2 mph /  1.9 km/h 1.2 mph /  1.9 km/h 97 % 0.00 in /  0 mm
07:28 54.9 °F /  12.7 °C 54.1 °F /  12.3 °C 30.16 in /  1021.2 hPa Calm     97 % 0.00 in /  0 mm
07:33 54.8 °F /  12.7 °C 54.0 °F /  12.2 °C 30.16 in /  1021.2 hPa Calm     97 % 0.00 in /  0 mm
07:38 54.8 °F /  12.7 °C 54.0 °F /  12.2 °C 30.16 in /  1021.2 hPa Calm     97 % 0.00 in /  0 mm
07:43 54.9 °F /  12.7 °C 54.1 °F /  12.3 °C 30.16 in /  1021.2 hPa Calm     97 % 0.00 in /  0 mm
07:48 55.0 °F /  12.8 °C 54.2 °F /  12.3 °C 30.15 in /  1020.9 hPa SE 1.2 mph /  1.9 km/h   97 % 0.00 in /  0 mm
07:54 55.0 °F /  12.8 °C 54.2 °F /  12.3 °C 30.16 in /  1021.2 hPa SE 1.2 mph /  1.9 km/h   97 % 0.00 in /  0 mm
07:59 55.0 °F /  12.8 °C 54.2 °F /  12.3 °C 30.15 in /  1020.9 hPa Calm     97 % 0.00 in /  0 mm
08:03 55.0 °F /  12.8 °C 54.2 °F /  12.3 °C 30.15 in /  1020.9 hPa Calm     97 % 0.00 in /  0 mm
08:06 55.0 °F /  12.8 °C 54.2 °F /  12.3 °C 30.15 in /  1020.9 hPa Calm     97 % 0.00 in /  0 mm
08:12 55.0 °F /  12.8 °C 54.2 °F /  12.3 °C 30.15 in /  1020.9 hPa SE 1.2 mph /  1.9 km/h   97 % 0.00 in /  0 mm
08:15 55.1 °F /  12.8 °C 54.3 °F /  12.4 °C 30.16 in /  1021.2 hPa Calm     97 % 0.00 in /  0 mm
08:16 55.1 °F /  12.8 °C 54.3 °F /  12.4 °C 30.16 in /  1021.2 hPa Calm     97 % 0.00 in /  0 mm
08:21 55.2 °F /  12.9 °C 54.4 °F /  12.4 °C 30.16 in /  1021.2 hPa Calm   0.4 mph /  0.6 km/h 97 % 0.00 in /  0 mm
08:27 55.0 °F /  12.8 °C 54.2 °F /  12.3 °C 30.16 in /  1021.2 hPa Calm     97 % 0.00 in /  0 mm
08:29 55.1 °F /  12.8 °C 54.3 °F /  12.4 °C 30.16 in /  1021.2 hPa Calm     97 % 0.00 in /  0 mm
08:34 55.2 °F /  12.9 °C 54.4 °F /  12.4 °C 30.16 in /  1021.2 hPa Calm     97 % 0.00 in /  0 mm
08:39 55.4 °F /  13 °C 54.6 °F /  12.6 °C 30.16 in /  1021.2 hPa Calm     97 % 0.00 in /  0 mm
08:44 55.3 °F /  12.9 °C 54.5 °F /  12.5 °C 30.16 in /  1021.2 hPa Calm     97 % 0.00 in /  0 mm
08:47 55.3 °F /  12.9 °C 54.5 °F /  12.5 °C 30.16 in /  1021.2 hPa Calm     97 % 0.00 in /  0 mm
08:53 55.7 °F /  13.2 °C 54.9 °F /  12.7 °C 30.16 in /  1021.2 hPa Calm     97 % 0.00 in /  0 mm
08:58 56.1 °F /  13.4 °C 55.3 °F /  12.9 °C 30.17 in /  1021.6 hPa SE 1.2 mph /  1.9 km/h   97 % 0.00 in /  0 mm
09:03 56.2 °F /  13.4 °C 55.4 °F /  13 °C 30.17 in /  1021.6 hPa Calm     97 % 0.00 in /  0 mm
09:05 56.4 °F /  13.6 °C 55.6 °F /  13.1 °C 30.17 in /  1021.6 hPa Calm     97 % 0.00 in /  0 mm
09:10 56.3 °F /  13.5 °C 55.5 °F /  13.1 °C 30.17 in /  1021.6 hPa ESE 1.2 mph /  1.9 km/h   97 % 0.00 in /  0 mm
09:15 56.7 °F /  13.7 °C 55.9 °F /  13.3 °C 30.17 in /  1021.6 hPa Calm     97 % 0.00 in /  0 mm
09:20 57.1 °F /  13.9 °C 56.3 °F /  13.5 °C 30.17 in /  1021.6 hPa WNW 2.0 mph /  3.2 km/h 2.0 mph /  3.2 km/h 97 % 0.00 in /  0 mm
09:25 57.3 °F /  14.1 °C 55.9 °F /  13.3 °C 30.17 in /  1021.6 hPa Calm   0.2 mph /  0.3 km/h 95 % 0.00 in /  0 mm
09:30 57.7 °F /  14.3 °C 56.0 °F /  13.3 °C 30.17 in /  1021.6 hPa ESE 1.2 mph /  1.9 km/h 1.2 mph /  1.9 km/h 94 % 0.00 in /  0 mm
09:32 57.8 °F /  14.3 °C 56.1 °F /  13.4 °C 30.17 in /  1021.6 hPa SE 1.2 mph /  1.9 km/h   94 % 0.00 in /  0 mm
09:37 58.3 °F /  14.6 °C 56.3 °F /  13.5 °C 30.17 in /  1021.6 hPa Calm     93 % 0.00 in /  0 mm
09:42 58.5 °F /  14.7 °C 56.2 °F /  13.4 °C 30.17 in /  1021.6 hPa ENE 1.2 mph /  1.9 km/h 1.2 mph /  1.9 km/h 92 % 0.00 in /  0 mm
09:43 58.6 °F /  14.8 °C 56.3 °F /  13.5 °C 30.17 in /  1021.6 hPa NNW 4.0 mph /  6.4 km/h 4.0 mph /  6.4 km/h 92 % 0.00 in /  0 mm
09:48 58.1 °F /  14.5 °C 55.5 °F /  13.1 °C 30.17 in /  1021.6 hPa NW 2.3 mph /  3.7 km/h 2.3 mph /  3.7 km/h 91 % 0.00 in /  0 mm
09:53 58.1 °F /  14.5 °C 55.8 °F /  13.2 °C 30.17 in /  1021.6 hPa West 3.5 mph /  5.6 km/h 3.5 mph /  5.6 km/h 92 % 0.00 in /  0 mm
09:58 58.3 °F /  14.6 °C 56.0 °F /  13.3 °C 30.17 in /  1021.6 hPa NW 1.2 mph /  1.9 km/h 1.2 mph /  1.9 km/h 92 % 0.00 in /  0 mm
10:00 58.5 °F /  14.7 °C 55.9 °F /  13.3 °C 30.16 in /  1021.2 hPa NW 2.3 mph /  3.7 km/h 2.3 mph /  3.7 km/h 91 % 0.00 in /  0 mm
10:06 59.1 °F /  15.1 °C 56.2 °F /  13.4 °C 30.16 in /  1021.2 hPa WNW 2.3 mph /  3.7 km/h 2.3 mph /  3.7 km/h 90 % 0.00 in /  0 mm
10:11 59.8 °F /  15.4 °C 56.2 °F /  13.4 °C 30.16 in /  1021.2 hPa WNW 1.2 mph /  1.9 km/h 1.2 mph /  1.9 km/h 88 % 0.00 in /  0 mm
10:15 60.3 °F /  15.7 °C 56.1 °F /  13.4 °C 30.15 in /  1020.9 hPa NW 2.3 mph /  3.7 km/h 2.3 mph /  3.7 km/h 86 % 0.00 in /  0 mm
10:20 60.9 °F /  16.1 °C 56.0 °F /  13.3 °C 30.15 in /  1020.9 hPa WNW 2.3 mph /  3.7 km/h 2.3 mph /  3.7 km/h 84 % 0.00 in /  0 mm
10:21 61.1 °F /  16.2 °C 56.2 °F /  13.4 °C 30.15 in /  1020.9 hPa Calm   0.1 mph /  0.2 km/h 84 % 0.00 in /  0 mm
10:23 61.3 °F /  16.3 °C 56.4 °F /  13.6 °C 30.15 in /  1020.9 hPa NNW 1.2 mph /  1.9 km/h 1.2 mph /  1.9 km/h 84 % 0.00 in /  0 mm
10:28 61.6 °F /  16.4 °C 56.0 °F /  13.3 °C 30.15 in /  1020.9 hPa NW 2.3 mph /  3.7 km/h 2.3 mph /  3.7 km/h 82 % 0.00 in /  0 mm
10:29 61.7 °F /  16.5 °C 55.8 °F /  13.2 °C 30.15 in /  1020.9 hPa NW 2.3 mph /  3.7 km/h 2.3 mph /  3.7 km/h 81 % 0.00 in /  0 mm
10:34 62.0 °F /  16.7 °C 55.8 °F /  13.2 °C 30.14 in /  1020.5 hPa NNE 2.3 mph /  3.7 km/h 2.3 mph /  3.7 km/h 80 % 0.00 in /  0 mm
10:38 62.1 °F /  16.7 °C 55.5 °F /  13.1 °C 30.14 in /  1020.5 hPa NW 1.2 mph /  1.9 km/h   79 % 0.00 in /  0 mm
10:44 62.7 °F /  17.1 °C 55.7 °F /  13.2 °C 30.14 in /  1020.5 hPa NW 2.3 mph /  3.7 km/h 2.3 mph /  3.7 km/h 78 % 0.00 in /  0 mm
10:46 62.9 °F /  17.2 °C 55.9 °F /  13.3 °C 30.14 in /  1020.5 hPa WNW 1.2 mph /  1.9 km/h 1.2 mph /  1.9 km/h 78 % 0.00 in /  0 mm
10:51 63.1 °F /  17.3 °C 55.0 °F /  12.8 °C 30.14 in /  1020.5 hPa WNW 1.2 mph /  1.9 km/h   75 % 0.00 in /  0 mm
10:56 63.3 °F /  17.4 °C 55.2 °F /  12.9 °C 30.14 in /  1020.5 hPa Calm     75 % 0.00 in /  0 mm
11:01 63.7 °F /  17.6 °C 55.6 °F /  13.1 °C 30.14 in /  1020.5 hPa Calm     75 % 0.00 in /  0 mm
11:06 64.3 °F /  17.9 °C 55.8 °F /  13.2 °C 30.14 in /  1020.5 hPa NW 1.2 mph /  1.9 km/h 1.2 mph /  1.9 km/h 74 % 0.00 in /  0 mm
11:11 64.2 °F /  17.9 °C 55.4 °F /  13 °C 30.13 in /  1020.2 hPa WNW 1.2 mph /  1.9 km/h 1.2 mph /  1.9 km/h 73 % 0.00 in /  0 mm
11:16 64.3 °F /  17.9 °C 55.5 °F /  13.1 °C 30.13 in /  1020.2 hPa NW 3.5 mph /  5.6 km/h 3.5 mph /  5.6 km/h 73 % 0.00 in /  0 mm
11:21 64.5 °F /  18.1 °C 54.9 °F /  12.7 °C 30.13 in /  1020.2 hPa WNW 2.3 mph /  3.7 km/h 2.3 mph /  3.7 km/h 71 % 0.00 in /  0 mm
11:26 64.3 °F /  17.9 °C 54.7 °F /  12.6 °C 30.13 in /  1020.2 hPa WNW 1.2 mph /  1.9 km/h 1.2 mph /  1.9 km/h 71 % 0.00 in /  0 mm
11:31 64.4 °F /  18 °C 55.2 °F /  12.9 °C 30.13 in /  1020.2 hPa NW 3.5 mph /  5.6 km/h 3.5 mph /  5.6 km/h 72 % 0.00 in /  0 mm
11:36 64.6 °F /  18.1 °C 55.7 °F /  13.2 °C 30.13 in /  1020.2 hPa NW 2.3 mph /  3.7 km/h 2.3 mph /  3.7 km/h 73 % 0.00 in /  0 mm
11:37 64.7 °F /  18.2 °C 55.8 °F /  13.2 °C 30.13 in /  1020.2 hPa NW 1.2 mph /  1.9 km/h 1.2 mph /  1.9 km/h 73 % 0.00 in /  0 mm
11:43 64.7 °F /  18.2 °C 55.5 °F /  13.1 °C 30.13 in /  1020.2 hPa NW 2.3 mph /  3.7 km/h 2.3 mph /  3.7 km/h 72 % 0.00 in /  0 mm
11:48 64.7 °F /  18.2 °C 55.5 °F /  13.1 °C 30.13 in /  1020.2 hPa WNW 3.5 mph /  5.6 km/h 3.5 mph /  5.6 km/h 72 % 0.00 in /  0 mm
11:54 65.0 °F /  18.3 °C 55.8 °F /  13.2 °C 30.13 in /  1020.2 hPa WNW 1.2 mph /  1.9 km/h 1.2 mph /  1.9 km/h 72 % 0.00 in /  0 mm
11:59 65.2 °F /  18.4 °C 55.6 °F /  13.1 °C 30.12 in /  1019.9 hPa NNW 3.5 mph /  5.6 km/h 3.5 mph /  5.6 km/h 71 % 0.00 in /  0 mm
12:04 65.3 °F /  18.5 °C 55.7 °F /  13.2 °C 30.12 in /  1019.9 hPa NW 3.5 mph /  5.6 km/h 3.5 mph /  5.6 km/h 71 % 0.00 in /  0 mm
12:07 65.3 °F /  18.5 °C 56.0 °F /  13.3 °C 30.12 in /  1019.9 hPa NW 1.0 mph /  1.6 km/h 1.0 mph /  1.6 km/h 72 % 0.00 in /  0 mm
12:12 65.2 °F /  18.4 °C 55.6 °F /  13.1 °C 30.12 in /  1019.9 hPa WNW 2.3 mph /  3.7 km/h 2.3 mph /  3.7 km/h 71 % 0.00 in /  0 mm
12:13 65.2 °F /  18.4 °C 55.6 °F /  13.1 °C 30.12 in /  1019.9 hPa WNW 1.2 mph /  1.9 km/h 1.2 mph /  1.9 km/h 71 % 0.00 in /  0 mm
12:18 65.4 °F /  18.6 °C 55.7 °F /  13.2 °C 30.12 in /  1019.9 hPa WNW 2.3 mph /  3.7 km/h 2.3 mph /  3.7 km/h 71 % 0.00 in /  0 mm
12:23 65.6 °F /  18.7 °C 55.9 °F /  13.3 °C 30.11 in /  1019.5 hPa North 3.5 mph /  5.6 km/h 3.5 mph /  5.6 km/h 71 % 0.00 in /  0 mm
12:28 65.7 °F /  18.7 °C 56.0 °F /  13.3 °C 30.11 in /  1019.5 hPa NW 2.3 mph /  3.7 km/h 2.3 mph /  3.7 km/h 71 % 0.00 in /  0 mm
12:33 65.8 °F /  18.8 °C 55.7 °F /  13.2 °C 30.11 in /  1019.5 hPa NE 1.0 mph /  1.6 km/h 1.0 mph /  1.6 km/h 70 % 0.00 in /  0 mm
12:35 65.9 °F /  18.8 °C 56.2 °F /  13.4 °C 30.10 in /  1019.2 hPa SE 3.0 mph /  4.8 km/h 3.0 mph /  4.8 km/h 71 % 0.00 in /  0 mm
12:36 66.0 °F /  18.9 °C 56.3 °F /  13.5 °C 30.10 in /  1019.2 hPa SSE 3.5 mph /  5.6 km/h 3.5 mph /  5.6 km/h 71 % 0.00 in /  0 mm
12:41 66.6 °F /  19.2 °C 56.1 °F /  13.4 °C 30.10 in /  1019.2 hPa SE 1.2 mph /  1.9 km/h   69 % 0.00 in /  0 mm
12:46 67.0 °F /  19.4 °C 55.7 °F /  13.2 °C 30.09 in /  1018.8 hPa SSW 1.2 mph /  1.9 km/h   67 % 0.00 in /  0 mm
12:49 67.1 °F /  19.5 °C 55.8 °F /  13.2 °C 30.09 in /  1018.8 hPa Calm     67 % 0.00 in /  0 mm
12:54 67.2 °F /  19.6 °C 55.9 °F /  13.3 °C 30.08 in /  1018.5 hPa NNW 1.2 mph /  1.9 km/h 1.2 mph /  1.9 km/h 67 % 0.00 in /  0 mm
12:59 67.0 °F /  19.4 °C 55.7 °F /  13.2 °C 30.08 in /  1018.5 hPa Calm     67 % 0.00 in /  0 mm
13:00 66.9 °F /  19.4 °C 55.6 °F /  13.1 °C 30.08 in /  1018.5 hPa West 1.2 mph /  1.9 km/h   67 % 0.00 in /  0 mm
13:05 67.1 °F /  19.5 °C 55.8 °F /  13.2 °C 30.08 in /  1018.5 hPa NW 1.2 mph /  1.9 km/h 1.2 mph /  1.9 km/h 67 % 0.00 in /  0 mm
13:10 67.3 °F /  19.6 °C 55.5 °F /  13.1 °C 30.08 in /  1018.5 hPa NW 2.3 mph /  3.7 km/h 2.3 mph /  3.7 km/h 66 % 0.00 in /  0 mm
13:15 67.4 °F /  19.7 °C 55.6 °F /  13.1 °C 30.08 in /  1018.5 hPa Calm   0.4 mph /  0.6 km/h 66 % 0.00 in /  0 mm
13:21 67.7 °F /  19.8 °C 54.6 °F /  12.6 °C 30.07 in /  1018.2 hPa NW 3.5 mph /  5.6 km/h 3.5 mph /  5.6 km/h 63 % 0.00 in /  0 mm
13:26 67.9 °F /  19.9 °C 54.4 °F /  12.4 °C 30.07 in /  1018.2 hPa WNW 3.5 mph /  5.6 km/h 3.5 mph /  5.6 km/h 62 % 0.00 in /  0 mm
13:31 68.0 °F /  20 °C 54.9 °F /  12.7 °C 30.06 in /  1017.8 hPa Calm     63 % 0.00 in /  0 mm
13:36 68.6 °F /  20.3 °C 55.1 °F /  12.8 °C 30.06 in /  1017.8 hPa Calm     62 % 0.00 in /  0 mm
13:39 68.9 °F /  20.5 °C 54.9 °F /  12.7 °C 30.06 in /  1017.8 hPa Calm     61 % 0.00 in /  0 mm
13:44 69.3 °F /  20.7 °C 54.8 °F /  12.7 °C 30.06 in /  1017.8 hPa Calm     60 % 0.00 in /  0 mm
13:45 69.3 °F /  20.7 °C 54.8 °F /  12.7 °C 30.06 in /  1017.8 hPa WNW 1.2 mph /  1.9 km/h 1.2 mph /  1.9 km/h 60 % 0.00 in /  0 mm
13:50 69.0 °F /  20.6 °C 55.0 °F /  12.8 °C 30.06 in /  1017.8 hPa WNW 2.0 mph /  3.2 km/h 2.0 mph /  3.2 km/h 61 % 0.00 in /  0 mm
13:55 68.7 °F /  20.4 °C 54.7 °F /  12.6 °C 30.06 in /  1017.8 hPa North 2.3 mph /  3.7 km/h 2.3 mph /  3.7 km/h 61 % 0.00 in /  0 mm
14:00 68.6 °F /  20.3 °C 54.6 °F /  12.6 °C 30.05 in /  1017.5 hPa NNW 2.3 mph /  3.7 km/h 2.3 mph /  3.7 km/h 61 % 0.00 in /  0 mm
14:06 68.6 °F /  20.3 °C 54.6 °F /  12.6 °C 30.05 in /  1017.5 hPa NNE 2.3 mph /  3.7 km/h 2.3 mph /  3.7 km/h 61 % 0.00 in /  0 mm
14:11 68.5 °F /  20.3 °C 54.5 °F /  12.5 °C 30.05 in /  1017.5 hPa WNW 2.3 mph /  3.7 km/h 2.3 mph /  3.7 km/h 61 % 0.00 in /  0 mm
14:16 68.4 °F /  20.2 °C 54.4 °F /  12.4 °C 30.05 in /  1017.5 hPa WNW 3.5 mph /  5.6 km/h 3.5 mph /  5.6 km/h 61 % 0.00 in /  0 mm
14:21 68.4 °F /  20.2 °C 54.4 °F /  12.4 °C 30.05 in /  1017.5 hPa NNW 2.3 mph /  3.7 km/h 2.3 mph /  3.7 km/h 61 % 0.00 in /  0 mm
14:26 68.4 °F /  20.2 °C 54.9 °F /  12.7 °C 30.05 in /  1017.5 hPa NW 2.3 mph /  3.7 km/h 2.3 mph /  3.7 km/h 62 % 0.00 in /  0 mm
14:34 68.1 °F /  20.1 °C 54.6 °F /  12.6 °C 30.05 in /  1017.5 hPa West 1.2 mph /  1.9 km/h 1.2 mph /  1.9 km/h 62 % 0.00 in /  0 mm
14:38 68.0 °F /  20 °C 54.9 °F /  12.7 °C 30.04 in /  1017.2 hPa NNW 4.0 mph /  6.4 km/h 4.0 mph /  6.4 km/h 63 % 0.00 in /  0 mm
14:43 68.1 °F /  20.1 °C 55.0 °F /  12.8 °C 30.04 in /  1017.2 hPa West 2.3 mph /  3.7 km/h 2.3 mph /  3.7 km/h 63 % 0.00 in /  0 mm
14:48 68.0 °F /  20 °C 55.4 °F /  13 °C 30.04 in /  1017.2 hPa NW 2.3 mph /  3.7 km/h 2.3 mph /  3.7 km/h 64 % 0.00 in /  0 mm
14:53 68.1 °F /  20.1 °C 55.5 °F /  13.1 °C 30.04 in /  1017.2 hPa NNW 3.5 mph /  5.6 km/h 3.5 mph /  5.6 km/h 64 % 0.00 in /  0 mm
14:58 68.1 °F /  20.1 °C 55.5 °F /  13.1 °C 30.04 in /  1017.2 hPa WNW 1.2 mph /  1.9 km/h 1.2 mph /  1.9 km/h 64 % 0.00 in /  0 mm
15:03 67.9 °F /  19.9 °C 55.3 °F /  12.9 °C 30.03 in /  1016.8 hPa WNW 3.5 mph /  5.6 km/h 3.5 mph /  5.6 km/h 64 % 0.00 in /  0 mm
15:08 67.9 °F /  19.9 °C 55.3 °F /  12.9 °C 30.03 in /  1016.8 hPa NW 2.3 mph /  3.7 km/h 2.3 mph /  3.7 km/h 64 % 0.00 in /  0 mm
15:13 67.6 °F /  19.8 °C 55.0 °F /  12.8 °C 30.03 in /  1016.8 hPa West 3.5 mph /  5.6 km/h 3.5 mph /  5.6 km/h 64 % 0.00 in /  0 mm
15:18 67.6 °F /  19.8 °C 55.4 °F /  13 °C 30.03 in /  1016.8 hPa NW 3.5 mph /  5.6 km/h 3.5 mph /  5.6 km/h 65 % 0.00 in /  0 mm
15:23 67.6 °F /  19.8 °C 55.0 °F /  12.8 °C 30.03 in /  1016.8 hPa WNW 3.5 mph /  5.6 km/h 3.5 mph /  5.6 km/h 64 % 0.00 in /  0 mm
15:28 67.3 °F /  19.6 °C 55.1 °F /  12.8 °C 30.03 in /  1016.8 hPa WNW 2.3 mph /  3.7 km/h 2.3 mph /  3.7 km/h 65 % 0.00 in /  0 mm
15:30 67.2 °F /  19.6 °C 55.0 °F /  12.8 °C 30.03 in /  1016.8 hPa WNW 1.2 mph /  1.9 km/h   65 % 0.00 in /  0 mm
15:35 67.2 °F /  19.6 °C 55.0 °F /  12.8 °C 30.03 in /  1016.8 hPa NW 2.3 mph /  3.7 km/h 2.3 mph /  3.7 km/h 65 % 0.00 in /  0 mm
15:40 67.2 °F /  19.6 °C 55.0 °F /  12.8 °C 30.03 in /  1016.8 hPa Calm     65 % 0.00 in /  0 mm
15:42 67.2 °F /  19.6 °C 55.0 °F /  12.8 °C 30.03 in /  1016.8 hPa WNW 1.2 mph /  1.9 km/h 1.2 mph /  1.9 km/h 65 % 0.00 in /  0 mm
15:47 67.2 °F /  19.6 °C 55.0 °F /  12.8 °C 30.03 in /  1016.8 hPa NW 2.3 mph /  3.7 km/h 2.3 mph /  3.7 km/h 65 % 0.00 in /  0 mm
15:52 66.9 °F /  19.4 °C 55.2 °F /  12.9 °C 30.03 in /  1016.8 hPa NW 2.3 mph /  3.7 km/h 2.3 mph /  3.7 km/h 66 % 0.00 in /  0 mm
15:56 66.6 °F /  19.2 °C 55.3 °F /  12.9 °C 30.03 in /  1016.8 hPa NW 1.2 mph /  1.9 km/h 1.2 mph /  1.9 km/h 67 % 0.00 in /  0 mm
16:02 66.3 °F /  19.1 °C 55.0 °F /  12.8 °C 30.03 in /  1016.8 hPa Calm     67 % 0.00 in /  0 mm
16:07 66.1 °F /  18.9 °C 55.2 °F /  12.9 °C 30.03 in /  1016.8 hPa Calm     68 % 0.00 in /  0 mm
16:13 66.0 °F /  18.9 °C 55.5 °F /  13.1 °C 30.03 in /  1016.8 hPa Calm     69 % 0.00 in /  0 mm
16:18 65.9 °F /  18.8 °C 55.4 °F /  13 °C 30.03 in /  1016.8 hPa Calm     69 % 0.00 in /  0 mm
16:23 66.0 °F /  18.9 °C 55.5 °F /  13.1 °C 30.03 in /  1016.8 hPa Calm     69 % 0.00 in /  0 mm
16:25 66.0 °F /  18.9 °C 55.1 °F /  12.8 °C 30.03 in /  1016.8 hPa Calm     68 % 0.00 in /  0 mm
16:30 65.8 °F /  18.8 °C 55.3 °F /  12.9 °C 30.03 in /  1016.8 hPa Calm     69 % 0.00 in /  0 mm
16:35 65.5 °F /  18.6 °C 55.1 °F /  12.8 °C 30.03 in /  1016.8 hPa Calm     69 % 0.00 in /  0 mm
16:37 65.4 °F /  18.6 °C 55.0 °F /  12.8 °C 30.03 in /  1016.8 hPa Calm     69 % 0.00 in /  0 mm
16:42 64.9 °F /  18.3 °C 54.9 °F /  12.7 °C 30.03 in /  1016.8 hPa Calm     70 % 0.00 in /  0 mm
16:46 64.5 °F /  18.1 °C 54.9 °F /  12.7 °C 30.04 in /  1017.2 hPa Calm     71 % 0.00 in /  0 mm
16:52 64.0 °F /  17.8 °C 54.4 °F /  12.4 °C 30.03 in /  1016.8 hPa Calm     71 % 0.00 in /  0 mm
16:57 63.4 °F /  17.4 °C 54.2 °F /  12.3 °C 30.04 in /  1017.2 hPa Calm     72 % 0.00 in /  0 mm
17:02 62.9 °F /  17.2 °C 54.5 °F /  12.5 °C 30.04 in /  1017.2 hPa Calm     74 % 0.00 in /  0 mm
17:07 62.3 °F /  16.8 °C 54.3 °F /  12.4 °C 30.04 in /  1017.2 hPa Calm     75 % 0.00 in /  0 mm
17:13 61.8 °F /  16.6 °C 54.2 °F /  12.3 °C 30.04 in /  1017.2 hPa Calm     76 % 0.00 in /  0 mm
17:18 61.2 °F /  16.2 °C 53.9 °F /  12.2 °C 30.04 in /  1017.2 hPa Calm     77 % 0.00 in /  0 mm
17:21 60.9 °F /  16.1 °C 54.0 °F /  12.2 °C 30.04 in /  1017.2 hPa Calm     78 % 0.00 in /  0 mm
17:26 60.3 °F /  15.7 °C 53.8 °F /  12.1 °C 30.04 in /  1017.2 hPa Calm     79 % 0.00 in /  0 mm
17:30 60.0 °F /  15.6 °C 53.5 °F /  11.9 °C 30.04 in /  1017.2 hPa Calm     79 % 0.00 in /  0 mm
17:35 59.3 °F /  15.2 °C 53.5 °F /  11.9 °C 30.04 in /  1017.2 hPa Calm     81 % 0.00 in /  0 mm
17:40 58.9 °F /  14.9 °C 53.4 °F /  11.9 °C 30.03 in /  1016.8 hPa Calm     82 % 0.00 in /  0 mm
17:45 58.7 °F /  14.8 °C 53.2 °F /  11.8 °C 30.03 in /  1016.8 hPa Calm     82 % 0.00 in /  0 mm
17:51 59.0 °F /  15 °C 53.5 °F /  11.9 °C 30.04 in /  1017.2 hPa Calm     82 % 0.00 in /  0 mm
17:56 59.2 °F /  15.1 °C 53.7 °F /  12.1 °C 30.04 in /  1017.2 hPa Calm     82 % 0.00 in /  0 mm
18:01 59.2 °F /  15.1 °C 53.7 °F /  12.1 °C 30.04 in /  1017.2 hPa Calm     82 % 0.00 in /  0 mm
18:06 58.8 °F /  14.9 °C 53.3 °F /  11.8 °C 30.04 in /  1017.2 hPa Calm     82 % 0.00 in /  0 mm
18:11 58.3 °F /  14.6 °C 53.2 °F /  11.8 °C 30.03 in /  1016.8 hPa Calm     83 % 0.00 in /  0 mm
18:16 57.7 °F /  14.3 °C 52.9 °F /  11.6 °C 30.03 in /  1016.8 hPa Calm     84 % 0.00 in /  0 mm
18:21 57.1 °F /  13.9 °C 52.3 °F /  11.3 °C 30.03 in /  1016.8 hPa Calm     84 % 0.00 in /  0 mm
18:27 56.7 °F /  13.7 °C 52.2 °F /  11.2 °C 30.03 in /  1016.8 hPa Calm     85 % 0.00 in /  0 mm
18:32 56.3 °F /  13.5 °C 52.2 °F /  11.2 °C 30.03 in /  1016.8 hPa Calm     86 % 0.00 in /  0 mm
18:35 56.2 °F /  13.4 °C 52.1 °F /  11.2 °C 30.04 in /  1017.2 hPa Calm     86 % 0.00 in /  0 mm
18:40 56.0 °F /  13.3 °C 52.2 °F /  11.2 °C 30.04 in /  1017.2 hPa Calm     87 % 0.00 in /  0 mm
18:45 55.8 °F /  13.2 °C 52.3 °F /  11.3 °C 30.04 in /  1017.2 hPa Calm     88 % 0.00 in /  0 mm
18:49 55.7 °F /  13.2 °C 52.2 °F /  11.2 °C 30.04 in /  1017.2 hPa Calm     88 % 0.00 in /  0 mm
18:53 55.8 °F /  13.2 °C 52.3 °F /  11.3 °C 30.04 in /  1017.2 hPa Calm     88 % 0.00 in /  0 mm
18:58 55.6 °F /  13.1 °C 52.1 °F /  11.2 °C 30.05 in /  1017.5 hPa Calm     88 % 0.00 in /  0 mm
19:03 55.4 °F /  13 °C 51.9 °F /  11.1 °C 30.05 in /  1017.5 hPa Calm     88 % 0.00 in /  0 mm
19:08 55.3 °F /  12.9 °C 52.1 °F /  11.2 °C 30.05 in /  1017.5 hPa Calm     89 % 0.00 in /  0 mm
19:14 55.3 °F /  12.9 °C 52.1 °F /  11.2 °C 30.05 in /  1017.5 hPa Calm     89 % 0.00 in /  0 mm
19:20 55.1 °F /  12.8 °C 51.9 °F /  11.1 °C 30.05 in /  1017.5 hPa Calm     89 % 0.00 in /  0 mm
19:25 55.3 °F /  12.9 °C 52.4 °F /  11.3 °C 30.06 in /  1017.8 hPa Calm     90 % 0.00 in /  0 mm
19:37 55.2 °F /  12.9 °C 52.3 °F /  11.3 °C 30.06 in /  1017.8 hPa Calm     90 % 0.00 in /  0 mm
19:40 55.3 °F /  12.9 °C 52.4 °F /  11.3 °C 30.06 in /  1017.8 hPa Calm     90 % 0.00 in /  0 mm
19:50 55.4 °F /  13 °C 52.2 °F /  11.2 °C 30.05 in /  1017.5 hPa Calm     89 % 0.00 in /  0 mm
20:01 55.4 °F /  13 °C 52.2 °F /  11.2 °C 30.05 in /  1017.5 hPa Calm     89 % 0.00 in /  0 mm
20:08 55.4 °F /  13 °C 52.2 °F /  11.2 °C 30.05 in /  1017.5 hPa Calm     89 % 0.00 in /  0 mm
20:33 55.1 °F /  12.8 °C 51.9 °F /  11.1 °C 30.05 in /  1017.5 hPa Calm     89 % 0.00 in /  0 mm
20:42 54.7 °F /  12.6 °C 51.5 °F /  10.8 °C 30.05 in /  1017.5 hPa Calm     89 % 0.00 in /  0 mm
21:18 54.6 °F /  12.6 °C 52.0 °F /  11.1 °C 30.04 in /  1017.2 hPa Calm     91 % 0.00 in /  0 mm
21:45 54.0 °F /  12.2 °C 51.4 °F /  10.8 °C 30.04 in /  1017.2 hPa Calm     91 % 0.00 in /  0 mm
21:54 53.8 °F /  12.1 °C 51.2 °F /  10.7 °C 30.05 in /  1017.5 hPa Calm     91 % 0.00 in /  0 mm
22:02 53.7 °F /  12.1 °C 51.4 °F /  10.8 °C 30.05 in /  1017.5 hPa Calm     92 % 0.00 in /  0 mm
22:13 53.8 °F /  12.1 °C 51.5 °F /  10.8 °C 30.03 in /  1016.8 hPa Calm     92 % 0.00 in /  0 mm
22:20 53.9 °F /  12.2 °C 51.6 °F /  10.9 °C 30.04 in /  1017.2 hPa Calm     92 % 0.00 in /  0 mm
22:26 54.0 °F /  12.2 °C 51.7 °F /  10.9 °C 30.03 in /  1016.8 hPa Calm     92 % 0.00 in /  0 mm
23:02 53.7 °F /  12.1 °C 51.1 °F /  10.6 °C 30.03 in /  1016.8 hPa Calm     91 % 0.00 in /  0 mm
23:09 53.7 °F /  12.1 °C 51.4 °F /  10.8 °C 30.03 in /  1016.8 hPa Calm     92 % 0.00 in /  0 mm
23:57 55.0 °F /  12.8 °C 52.1 °F /  11.2 °C 30.01 in /  1016.1 hPa Calm     90 % 0.00 in /  0 mm
Park Place, Exeter, Tulare County, California, USA
Compliments of Weather Underground - 2.75 mb